sat.trackr.live / text

‹ back to catalog

STARLINK-34297

NORAD 64261 · 2025-120F

PAYLOAD ACTIVE UNKNOWN

§ Identity

Operator
Country
US
Launch date
2025-06-04
Launch site
AFWTR
Launch vehicle
Mass (kg)
RCS (m²)

Purposes: comms

External: N2YO · Heavens-Above · Gunter

§ Orbital elements

Epoch: 2026-05-25T05:05:45.779424Z

Period
93.83 min
Inclination
53.1594°
Eccentricity
0.0001362
Mean motion
15.34651955 rev/d
Perigee alt
461.0 km
Apogee alt
462.9 km
Semi-major
6,840.1 km
B*
-1.1545e-2
RAAN
119.0187°
Arg perigee
90.2264°
Mean anomaly
269.8895°
Rev number
5,555

§ Raw data

STARLINK-342971 64261U 25120F   26145.21233541 -.00374683  00000+0 -11545-1 0  99972 64261  53.1594 119.0187 0001362  90.2264 269.8895 15.34651955 55551

JSON: /api/v1/satellites/64261 · /tle

For live sub-satellite position, see the globe view (requires WebGL).

§ Visibility from observer

Set your observer location to see the next 7 days of passes ≥ 10°. The values pass through the URL so the page stays shareable.

No JS? Fill the form by hand. The geolocation button needs JavaScript.